CKS122 KMIA-LFBT

Flight info

Callsign CKS122
Flight time N/A
Altitude 29000
Route SNAGY/M084F290 M203 PADRK/M084F310 M203 BOBTU DCT 4545N/M084F330 DCT 46N037W 46N028W DCT 4620N DCT PITAX/N0482F330 DCT ADROX DCT VES/N0453F240 M190 BLV/N0479F350 M190 SSN P181 URUNA DCT SOVOS
Aircraft B77L/H-SDE1E2E3FGHIJ2J3J4J5M1RWXY/LB1D1

Departure

Time 2026-05-06 08:24
Airport Miami International Airport (KMIA)

Arrival

Time N/A
Airport Tarbes-Lourdes-Pyrénées Airport (LFBT)
Time Latitude Longitude Altitude Speed Heading
2026-05-06 08:04 25.79334 -80.29567 24 ft 0 kts 210°
2026-05-06 08:18 25.79337 -80.29565 24 ft 1 kts 210°
2026-05-06 08:18 25.79347 -80.29559 30 ft 2 kts 192°
2026-05-06 08:18 25.79363 -80.29557 27 ft 3 kts 173°
2026-05-06 08:18 25.79381 -80.29562 29 ft 3 kts 153°
2026-05-06 08:19 25.79397 -80.29574 27 ft 3 kts 133°
2026-05-06 08:19 25.79403 -80.29581 28 ft 0 kts 123°
2026-05-06 08:20 25.79387 -80.29549 29 ft 12 kts 114°
2026-05-06 08:20 25.79407 -80.29466 26 ft 12 kts 39°
2026-05-06 08:20 25.79490 -80.29453 22 ft 12 kts 359°
2026-05-06 08:21 25.79576 -80.29456 21 ft 12 kts 357°
2026-05-06 08:21 25.79660 -80.29475 20 ft 14 kts 327°
2026-05-06 08:21 25.79723 -80.29578 20 ft 17 kts 299°
2026-05-06 08:21 25.79780 -80.29690 17 ft 17 kts 299°
2026-05-06 08:22 25.79837 -80.29802 16 ft 17 kts 300°
2026-05-06 08:22 25.79895 -80.29913 17 ft 17 kts 300°
2026-05-06 08:22 25.79956 -80.30023 16 ft 17 kts 304°
2026-05-06 08:22 25.80043 -80.30092 18 ft 17 kts 10°
2026-05-06 08:23 25.80077 -80.29980 16 ft 17 kts 89°
2026-05-06 08:23 25.80086 -80.29765 18 ft 54 kts 87°
2026-05-06 08:23 25.80116 -80.29047 25 ft 130 kts 87°
2026-05-06 08:23 25.80168 -80.27776 23 ft 196 kts 88°
2026-05-06 08:24 25.80223 -80.26256 570 ft 198 kts 89°
2026-05-06 08:24 25.80053 -80.24726 1132 ft 204 kts 111°
2026-05-06 08:24 25.79390 -80.23315 1517 ft 210 kts 119°
2026-05-06 08:24 25.78658 -80.21865 1863 ft 220 kts 118°
2026-05-06 08:25 25.77893 -80.20326 2141 ft 236 kts 117°
2026-05-06 08:25 25.77127 -80.18671 2572 ft 246 kts 116°
2026-05-06 08:25 25.76322 -80.16942 2990 ft 258 kts 118°
2026-05-06 08:25 25.75454 -80.15192 3573 ft 260 kts 118°
2026-05-06 08:26 25.74569 -80.13430 4167 ft 265 kts 117°
2026-05-06 08:26 25.74072 -80.11453 4502 ft 274 kts 85°
2026-05-06 08:26 25.74663 -80.09454 5000 ft 278 kts 52°
2026-05-06 08:26 25.75903 -80.07836 5497 ft 282 kts 48°
2026-05-06 08:27 25.77220 -80.06190 6069 ft 287 kts 47°
2026-05-06 08:27 25.78550 -80.04527 6709 ft 289 kts 47°
2026-05-06 08:27 25.79880 -80.02862 7376 ft 289 kts 47°
2026-05-06 08:27 25.81218 -80.01182 7973 ft 291 kts 47°
2026-05-06 08:28 25.82568 -79.99483 8559 ft 294 kts 47°
2026-05-06 08:28 25.83927 -79.97769 9165 ft 297 kts 46°
2026-05-06 08:28 25.85292 -79.96041 9773 ft 299 kts 46°
2026-05-06 08:28 25.86670 -79.94294 10276 ft 304 kts 46°
2026-05-06 08:29 25.87610 -79.93103 10383 ft 316 kts 46°
2026-05-06 08:29 25.89104 -79.91210 10538 ft 335 kts 46°
2026-05-06 08:29 25.91212 -79.88533 10727 ft 360 kts 47°
2026-05-06 08:29 25.92896 -79.86390 10946 ft 375 kts 47°
2026-05-06 08:30 25.94636 -79.84171 11366 ft 384 kts 47°
2026-05-06 08:30 25.95801 -79.82685 11693 ft 387 kts 47°
2026-05-06 08:30 25.97583 -79.80410 12281 ft 391 kts 47°
2026-05-06 08:30 25.99375 -79.78121 12886 ft 394 kts 46°
2026-05-06 08:31 26.01182 -79.75814 13438 ft 397 kts 46°
2026-05-06 08:31 26.03005 -79.73484 13997 ft 401 kts 46°
2026-05-06 08:31 26.04844 -79.71134 14500 ft 404 kts 46°
2026-05-06 08:31 26.06697 -79.68765 15033 ft 406 kts 46°
2026-05-06 08:32 26.08556 -79.66388 15565 ft 408 kts 46°
2026-05-06 08:32 26.10425 -79.63997 16059 ft 411 kts 46°
2026-05-06 08:32 26.12218 -79.61500 16563 ft 415 kts 51°
2026-05-06 08:32 26.13898 -79.58856 17052 ft 418 kts 53°
2026-05-06 08:33 26.15540 -79.56171 17544 ft 421 kts 53°
2026-05-06 08:33 26.17196 -79.53469 18015 ft 424 kts 53°
2026-05-06 08:33 26.18851 -79.50803 18464 ft 426 kts 52°
2026-05-06 08:33 26.20577 -79.48056 18857 ft 429 kts 52°
2026-05-06 08:34 26.22284 -79.45359 19226 ft 433 kts 52°
2026-05-06 08:34 26.25779 -79.39844 19983 ft 439 kts 51°
2026-05-06 08:34 26.27543 -79.37058 20358 ft 441 kts 51°
2026-05-06 08:35 26.29473 -79.34420 20629 ft 439 kts 38°
2026-05-06 08:35 26.31949 -79.32470 20876 ft 434 kts 28°
2026-05-06 08:35 26.34546 -79.30714 21161 ft 439 kts 28°
2026-05-06 08:35 26.37157 -79.28935 21547 ft 441 kts 28°
2026-05-06 08:36 26.39769 -79.27130 21946 ft 442 kts 28°
2026-05-06 08:36 26.42383 -79.25301 22320 ft 445 kts 28°
2026-05-06 08:36 26.45012 -79.23444 22666 ft 448 kts 28°
2026-05-06 08:36 26.47646 -79.21571 22996 ft 450 kts 28°
2026-05-06 08:37 26.50262 -79.19705 23334 ft 453 kts 28°
2026-05-06 08:37 26.52928 -79.17799 23652 ft 455 kts 28°
2026-05-06 08:37 26.55601 -79.15886 23938 ft 457 kts 28°
2026-05-06 08:37 26.58283 -79.13966 24235 ft 459 kts 28°
2026-05-06 08:38 26.60974 -79.12040 24533 ft 460 kts 28°
2026-05-06 08:38 26.63679 -79.10102 24825 ft 462 kts 28°
2026-05-06 08:38 26.66387 -79.08163 25112 ft 463 kts 28°
2026-05-06 08:38 26.69106 -79.06214 25396 ft 465 kts 28°
2026-05-06 08:39 26.71841 -79.04253 25674 ft 467 kts 28°
2026-05-06 08:39 26.74577 -79.02290 25970 ft 468 kts 28°
2026-05-06 08:39 26.77324 -79.00318 26252 ft 470 kts 28°
2026-05-06 08:39 26.80072 -78.98344 26543 ft 471 kts 28°
2026-05-06 08:40 26.82842 -78.96353 26837 ft 473 kts 28°
2026-05-06 08:40 26.85614 -78.94359 27126 ft 474 kts 28°
2026-05-06 08:40 26.88396 -78.92357 27412 ft 476 kts 27°
2026-05-06 08:40 26.91157 -78.90369 27685 ft 478 kts 27°
2026-05-06 08:41 26.93964 -78.88347 27977 ft 479 kts 27°
2026-05-06 08:41 26.96771 -78.86323 28264 ft 480 kts 27°
2026-05-06 08:41 26.99585 -78.84293 28542 ft 482 kts 27°
2026-05-06 08:41 27.02407 -78.82256 28793 ft 483 kts 27°
2026-05-06 08:42 27.05247 -78.80205 28977 ft 486 kts 27°
2026-05-06 08:42 27.10973 -78.76067 29049 ft 492 kts 27°
2026-05-06 08:43 27.16748 -78.71886 29054 ft 494 kts 27°
2026-05-06 08:43 27.22531 -78.67691 29050 ft 495 kts 27°
2026-05-06 08:44 27.28320 -78.63490 29048 ft 495 kts 27°
2026-05-06 08:44 27.34039 -78.59281 29048 ft 493 kts 28°
2026-05-06 08:45 27.39750 -78.55020 29047 ft 491 kts 28°
2026-05-06 08:45 27.45439 -78.50771 29046 ft 490 kts 27°
2026-05-06 08:46 27.51119 -78.46534 29061 ft 489 kts 27°
2026-05-06 08:46 27.56795 -78.42299 29050 ft 489 kts 27°
2026-05-06 08:47 27.62461 -78.38066 29056 ft 489 kts 27°
2026-05-06 08:47 27.68096 -78.33851 29058 ft 489 kts 27°
2026-05-06 08:48 27.73767 -78.29602 29059 ft 489 kts 27°
2026-05-06 08:48 27.79440 -78.25347 29060 ft 489 kts 27°
2026-05-06 08:49 27.85115 -78.21085 29051 ft 490 kts 27°
2026-05-06 08:49 27.90790 -78.16817 29049 ft 490 kts 27°
2026-05-06 08:50 27.96457 -78.12550 29052 ft 490 kts 27°
2026-05-06 08:50 28.02133 -78.08271 29051 ft 490 kts 27°
2026-05-06 08:51 28.07800 -78.03992 29056 ft 490 kts 27°
2026-05-06 08:51 28.13466 -77.99709 29057 ft 490 kts 27°
2026-05-06 08:52 28.19097 -77.95447 29058 ft 490 kts 27°
2026-05-06 08:52 28.24761 -77.91155 29058 ft 490 kts 27°
2026-05-06 08:53 28.30421 -77.86860 29066 ft 490 kts 27°
2026-05-06 08:53 28.36083 -77.82557 29061 ft 490 kts 27°
2026-05-06 08:54 28.41741 -77.78252 29064 ft 489 kts 27°
2026-05-06 08:54 28.47402 -77.73940 29059 ft 489 kts 27°
2026-05-06 08:55 28.53056 -77.69627 29062 ft 489 kts 27°
2026-05-06 08:55 28.58711 -77.65308 29059 ft 489 kts 27°
2026-05-06 08:56 28.64349 -77.60995 29064 ft 489 kts 27°
2026-05-06 08:56 28.69953 -77.56704 29065 ft 488 kts 27°
2026-05-06 08:57 28.75590 -77.52381 29066 ft 488 kts 27°
2026-05-06 08:57 28.81222 -77.48056 29065 ft 488 kts 27°
2026-05-06 08:58 28.86858 -77.43723 29063 ft 488 kts 27°
2026-05-06 08:58 28.92489 -77.39387 29063 ft 488 kts 27°
2026-05-06 08:59 28.98112 -77.35053 29066 ft 487 kts 27°
2026-05-06 08:59 29.03729 -77.30717 29067 ft 487 kts 27°
2026-05-06 09:00 29.09349 -77.26373 29068 ft 487 kts 27°
2026-05-06 09:00 29.14927 -77.22055 29067 ft 487 kts 27°
2026-05-06 09:01 29.20530 -77.17712 29071 ft 486 kts 27°
2026-05-06 09:01 29.26128 -77.13367 29071 ft 486 kts 27°
2026-05-06 09:02 29.31727 -77.09015 29075 ft 486 kts 27°
2026-05-06 09:02 29.37316 -77.04667 29077 ft 485 kts 27°
2026-05-06 09:03 29.42875 -77.00334 29064 ft 485 kts 27°
2026-05-06 09:03 29.48455 -76.95979 29070 ft 485 kts 27°
2026-05-06 09:04 29.54038 -76.91616 29071 ft 485 kts 27°
2026-05-06 09:04 29.59613 -76.87251 29073 ft 485 kts 28°
2026-05-06 09:04 29.62246 -76.84779 29068 ft 495 kts 39°
2026-05-06 09:05 29.64578 -76.81815 29089 ft 499 kts 43°
2026-05-06 09:05 29.69018 -76.75659 29084 ft 501 kts 44°
2026-05-06 09:06 29.73445 -76.69526 29081 ft 501 kts 43°
2026-05-06 09:06 29.77963 -76.63430 29083 ft 500 kts 42°
2026-05-06 09:07 29.82514 -76.57360 29087 ft 500 kts 42°
2026-05-06 09:07 29.87067 -76.51291 29084 ft 500 kts 42°
2026-05-06 09:08 29.91601 -76.45229 29084 ft 500 kts 42°
2026-05-06 09:08 29.96137 -76.39149 29094 ft 499 kts 42°
2026-05-06 09:09 30.00649 -76.33089 29087 ft 499 kts 43°
2026-05-06 09:09 30.05170 -76.27010 29086 ft 498 kts 43°
2026-05-06 09:10 30.09682 -76.20934 29096 ft 498 kts 43°
2026-05-06 09:10 30.14194 -76.14848 29093 ft 498 kts 43°
2026-05-06 09:11 30.18676 -76.08794 29094 ft 498 kts 43°
2026-05-06 09:11 30.23206 -76.02665 29090 ft 499 kts 43°
2026-05-06 09:12 30.27695 -75.96584 29294 ft 501 kts 43°
2026-05-06 09:12 30.29952 -75.93521 29706 ft 499 kts 43°
2026-05-06 09:12 30.32203 -75.90461 30187 ft 495 kts 43°
2026-05-06 09:12 30.34432 -75.87427 30576 ft 492 kts 43°
2026-05-06 09:13 30.36618 -75.84453 30885 ft 491 kts 43°
2026-05-06 09:13 30.38833 -75.81441 31023 ft 492 kts 43°
2026-05-06 09:13 30.41062 -75.78410 31063 ft 494 kts 43°
2026-05-06 09:14 30.45520 -75.72335 31096 ft 493 kts 43°
2026-05-06 09:14 30.49949 -75.66286 31102 ft 492 kts 43°
2026-05-06 09:15 30.54379 -75.60227 31102 ft 492 kts 43°
2026-05-06 09:15 30.58795 -75.54179 31104 ft 492 kts 43°
2026-05-06 09:16 30.62470 -75.49139 31109 ft 492 kts 43°
2026-05-06 09:16 30.66891 -75.43067 31112 ft 493 kts 43°
2026-05-06 09:17 30.71316 -75.36980 31112 ft 493 kts 43°
2026-05-06 09:17 30.76467 -75.29881 31116 ft 494 kts 43°
2026-05-06 09:18 30.80186 -75.24747 31116 ft 495 kts 43°
2026-05-06 09:18 30.84597 -75.18651 31112 ft 495 kts 43°
2026-05-06 09:19 30.89043 -75.12495 31120 ft 496 kts 43°
2026-05-06 09:19 30.93476 -75.06348 31117 ft 496 kts 44°
2026-05-06 09:20 30.97912 -75.00187 31124 ft 496 kts 44°
2026-05-06 09:20 31.02347 -74.94017 31116 ft 496 kts 44°
2026-05-06 09:21 31.06783 -74.87835 31119 ft 496 kts 44°
2026-05-06 09:21 31.11211 -74.81656 31121 ft 496 kts 44°
2026-05-06 09:22 31.15609 -74.75509 31124 ft 496 kts 44°
2026-05-06 09:22 31.20030 -74.69319 31123 ft 495 kts 44°
2026-05-06 09:23 31.24451 -74.63120 31130 ft 495 kts 44°
2026-05-06 09:23 31.28833 -74.56967 31131 ft 495 kts 44°
2026-05-06 09:24 31.33258 -74.50742 31131 ft 495 kts 44°
2026-05-06 09:24 31.37629 -74.44584 31132 ft 494 kts 44°
2026-05-06 09:25 31.42020 -74.38387 31133 ft 494 kts 44°
2026-05-06 09:25 31.46406 -74.32187 31120 ft 494 kts 44°
2026-05-06 09:26 31.50792 -74.25976 31143 ft 494 kts 44°
2026-05-06 09:26 31.55170 -74.19768 31147 ft 494 kts 44°
2026-05-06 09:27 31.59545 -74.13554 31131 ft 494 kts 44°
2026-05-06 09:27 31.63916 -74.07334 31140 ft 494 kts 44°
2026-05-06 09:28 31.68285 -74.01107 31139 ft 494 kts 44°
2026-05-06 09:28 31.72658 -73.94865 31145 ft 494 kts 44°
2026-05-06 09:29 31.76996 -73.88661 31142 ft 494 kts 44°
2026-05-06 09:29 31.81358 -73.82415 31151 ft 494 kts 44°
2026-05-06 09:30 31.85717 -73.76167 31149 ft 494 kts 44°
2026-05-06 09:30 31.90075 -73.69906 31152 ft 494 kts 44°
2026-05-06 09:31 31.94430 -73.63639 31148 ft 494 kts 44°
2026-05-06 09:31 31.98750 -73.57412 31151 ft 494 kts 44°
2026-05-06 09:32 32.03096 -73.51138 31154 ft 493 kts 44°
2026-05-06 09:32 32.07433 -73.44865 31155 ft 493 kts 44°
2026-05-06 09:33 32.11766 -73.38587 31157 ft 493 kts 44°
2026-05-06 09:33 32.16094 -73.32307 31161 ft 493 kts 44°
2026-05-06 09:34 32.20425 -73.26013 31162 ft 493 kts 44°
2026-05-06 09:34 32.24747 -73.19718 31163 ft 493 kts 44°
2026-05-06 09:35 32.29039 -73.13460 31163 ft 493 kts 44°
2026-05-06 09:35 32.33364 -73.07142 31168 ft 493 kts 44°
2026-05-06 09:36 32.37687 -73.00819 31159 ft 493 kts 44°
2026-05-06 09:36 32.41998 -72.94501 31157 ft 493 kts 44°
2026-05-06 09:37 32.46282 -72.88209 31165 ft 494 kts 44°
2026-05-06 09:37 32.50595 -72.81866 31165 ft 494 kts 44°
2026-05-06 09:38 32.54906 -72.75514 31172 ft 494 kts 45°
2026-05-06 09:38 32.59212 -72.69159 31172 ft 494 kts 45°
2026-05-06 09:39 32.63517 -72.62794 31169 ft 495 kts 45°
2026-05-06 09:39 32.67796 -72.56456 31171 ft 495 kts 45°
2026-05-06 09:40 32.72113 -72.50052 31173 ft 495 kts 45°
2026-05-06 09:40 32.78563 -72.40463 31171 ft 495 kts 45°
2026-05-06 09:41 32.82859 -72.34062 31177 ft 495 kts 45°
2026-05-06 09:41 32.87158 -72.27646 31179 ft 495 kts 45°
2026-05-06 09:42 32.91449 -72.21230 31180 ft 495 kts 45°
2026-05-06 09:42 32.95710 -72.14848 31179 ft 496 kts 45°
2026-05-06 09:43 33.00002 -72.08408 31179 ft 496 kts 45°
2026-05-06 09:43 33.04285 -72.01972 31181 ft 496 kts 45°
2026-05-06 09:44 33.08570 -71.95519 31182 ft 496 kts 45°
2026-05-06 09:44 33.12855 -71.89053 31182 ft 497 kts 45°
2026-05-06 09:45 33.17142 -71.82571 31180 ft 497 kts 45°
2026-05-06 09:45 33.21422 -71.76088 31180 ft 497 kts 45°
2026-05-06 09:46 33.25701 -71.69595 31182 ft 497 kts 45°
2026-05-06 09:46 33.29954 -71.63132 31179 ft 497 kts 45°
2026-05-06 09:47 33.34232 -71.56618 31180 ft 497 kts 45°
2026-05-06 09:47 33.38510 -71.50092 31183 ft 497 kts 45°
2026-05-06 09:48 33.42776 -71.43573 31183 ft 497 kts 46°
2026-05-06 09:48 33.47011 -71.37090 31185 ft 497 kts 46°
2026-05-06 09:49 33.51276 -71.30549 31190 ft 497 kts 46°
2026-05-06 09:49 33.55534 -71.24008 31189 ft 498 kts 46°
2026-05-06 09:50 33.59798 -71.17445 31191 ft 498 kts 46°
2026-05-06 09:50 33.64026 -71.10924 31191 ft 498 kts 46°
2026-05-06 09:51 33.68281 -71.04352 31178 ft 498 kts 46°
2026-05-06 09:51 33.72528 -70.97783 31180 ft 498 kts 46°
2026-05-06 09:52 33.76773 -70.91207 31184 ft 498 kts 46°
2026-05-06 09:52 33.81012 -70.84624 31194 ft 498 kts 46°
2026-05-06 09:53 33.85254 -70.78026 31191 ft 498 kts 47°
2026-05-06 09:53 33.89486 -70.71429 31195 ft 498 kts 47°
2026-05-06 09:54 33.93698 -70.64853 31192 ft 498 kts 47°
2026-05-06 09:54 33.97920 -70.58249 31194 ft 498 kts 47°
2026-05-06 09:55 34.02148 -70.51622 31192 ft 498 kts 47°
2026-05-06 09:55 34.06370 -70.44993 31192 ft 498 kts 47°
2026-05-06 09:56 34.10594 -70.38350 31193 ft 498 kts 47°
2026-05-06 09:56 34.14811 -70.31705 31194 ft 499 kts 47°
2026-05-06 09:57 34.19031 -70.25042 31195 ft 499 kts 47°
2026-05-06 09:57 34.23224 -70.18411 31195 ft 500 kts 47°
2026-05-06 09:58 34.27445 -70.11721 31196 ft 500 kts 47°
2026-05-06 09:58 34.31659 -70.05031 31204 ft 501 kts 47°